• Em Portugal
  • Lista de países
  • Para 7 dias
  • Temperatura da água
  • Mapas de satélite
  • Mapa do tempo
  • Widgets de tempo
  • user-avatar
    Iniciar Sessão

    Previsão horária em Nashavar

    Hoje, 25 Novembro, Sábado

    Tempo Temperatura Precipitação Vento Pressão Humidade
    00:00 +18°C° 0 mm 2 m/s 733 mmHg 22%
    01:00 +18°C° 0 mm 2 m/s 733 mmHg 23%
    02:00 +17°C° 0 mm 2 m/s 732 mmHg 25%
    03:00 +17°C° 0 mm 2 m/s 732 mmHg 26%
    04:00 +17°C° 0 mm 2 m/s 732 mmHg 28%
    05:00 +16°C° 0 mm 2 m/s 732 mmHg 29%
    06:00 +17°C° 0 mm 2 m/s 732 mmHg 29%
    07:00 +17°C° 0 mm 2 m/s 732 mmHg 30%
    08:00 +17°C° 0 mm 2 m/s 732 mmHg 30%
    09:00 +19°C° 0 mm 2 m/s 732 mmHg 27%
    10:00 +21°C° 0 mm 2 m/s 732 mmHg 23%
    11:00 +24°C° 0 mm 2 m/s 732 mmHg 20%
    12:00 +25°C° 0 mm 2 m/s 732 mmHg 19%
    13:00 +26°C° 0 mm 2 m/s 732 mmHg 18%
    14:00 +27°C° 0 mm 2 m/s 731 mmHg 16%
    15:00 +26°C° 0 mm 2 m/s 731 mmHg 19%
    16:00 +24°C° 0 mm 1 m/s 731 mmHg 21%
    17:00 +23°C° 0 mm 1 m/s 731 mmHg 23%
    18:00 +22°C° 0 mm 1 m/s 731 mmHg 24%
    19:00 +21°C° 0 mm 1 m/s 732 mmHg 25%
    20:00 +21°C° 0 mm 1 m/s 732 mmHg 25%
    21:00 +20°C° 0 mm 1 m/s 733 mmHg 26%
    22:00 +20°C° 0 mm 1 m/s 733 mmHg 27%
    23:00 +18°C° 0 mm 2 m/s 733 mmHg 27%

    Amanhã, 26 Novembro, Domingo

    Tempo Temperatura Precipitação Vento Pressão Humidade
    00:00 +18°C° 0 mm 2 m/s 733 mmHg 28%
    01:00 +17°C° 0 mm 2 m/s 733 mmHg 28%
    02:00 +17°C° 0 mm 2 m/s 733 mmHg 28%
    03:00 +17°C° 0 mm 2 m/s 733 mmHg 28%
    04:00 +16°C° 0 mm 2 m/s 733 mmHg 28%
    05:00 +16°C° 0 mm 2 m/s 733 mmHg 29%
    06:00 +16°C° 0 mm 2 m/s 734 mmHg 28%
    07:00 +17°C° 0 mm 2 m/s 734 mmHg 28%
    08:00 +17°C° 0 mm 2 m/s 734 mmHg 28%
    09:00 +19°C° 0 mm 2 m/s 734 mmHg 25%
    10:00 +21°C° 0 mm 2 m/s 735 mmHg 22%
    11:00 +24°C° 0 mm 2 m/s 735 mmHg 19%
    12:00 +24°C° 0 mm 2 m/s 734 mmHg 18%
    13:00 +25°C° 0 mm 2 m/s 733 mmHg 18%
    14:00 +26°C° 0 mm 2 m/s 733 mmHg 17%
    15:00 +25°C° 0 mm 2 m/s 733 mmHg 19%
    16:00 +24°C° 0 mm 2 m/s 732 mmHg 21%
    17:00 +21°C° 0 mm 2 m/s 732 mmHg 23%
    18:00 +21°C° 0 mm 2 m/s 732 mmHg 24%
    19:00 +20°C° 0 mm 2 m/s 733 mmHg 25%
    20:00 +19°C° 0 mm 2 m/s 733 mmHg 26%
    21:00 +19°C° 0 mm 2 m/s 733 mmHg 26%
    22:00 +18°C° 0 mm 2 m/s 733 mmHg 26%
    23:00 +18°C° 0 mm 2 m/s 733 mmHg 26%

    Depois de amanhã, 27 Novembro, Segunda-feira

    Tempo Temperatura Precipitação Vento Pressão Humidade
    00:00 +17°C° 0 mm 2 m/s 733 mmHg 25%
    01:00 +17°C° 0 mm 2 m/s 732 mmHg 25%
    02:00 +16°C° 0 mm 2 m/s 732 mmHg 25%
    03:00 +16°C° 0 mm 2 m/s 732 mmHg 25%
    04:00 +16°C° 0 mm 2 m/s 732 mmHg 24%
    05:00 +15°C° 0 mm 2 m/s 731 mmHg 24%
    06:00 +16°C° 0 mm 2 m/s 731 mmHg 24%
    07:00 +16°C° 0 mm 2 m/s 732 mmHg 23%
    08:00 +16°C° 0 mm 2 m/s 732 mmHg 23%
    09:00 +18°C° 0 mm 2 m/s 732 mmHg 20%
    10:00 +20°C° 0 mm 2 m/s 732 mmHg 17%
    11:00 +23°C° 0 mm 2 m/s 732 mmHg 14%
    12:00 +24°C° 0 mm 2 m/s 731 mmHg 13%
    13:00 +25°C° 0 mm 2 m/s 731 mmHg 12%
    14:00 +26°C° 0 mm 2 m/s 730 mmHg 11%
    15:00 +24°C° 0 mm 1 m/s 730 mmHg 13%
    16:00 +23°C° 0 mm 1 m/s 730 mmHg 16%
    17:00 +20°C° 0 mm 0 m/s 729 mmHg 18%
    18:00 +19°C° 0 mm 0 m/s 730 mmHg 18%
    19:00 +18°C° 0 mm 0 m/s 730 mmHg 19%
    20:00 +20°C° 0 mm 1 m/s 731 mmHg 19%
    21:00 +19°C° 0 mm 1 m/s 731 mmHg 20%
    22:00 +19°C° 0 mm 1 m/s 731 mmHg 20%
    23:00 +18°C° 0 mm 1 m/s 731 mmHg 20%

    28 Novembro, Terça-feira

    Tempo Temperatura Precipitação Vento Pressão Humidade
    00:00 +18°C° 0 mm 1 m/s 730 mmHg 20%
    01:00 +16°C° 0 mm 1 m/s 730 mmHg 20%
    02:00 +16°C° 0 mm 1 m/s 730 mmHg 20%
    03:00 +16°C° 0 mm 1 m/s 730 mmHg 20%
    04:00 +15°C° 0 mm 1 m/s 730 mmHg 20%
    05:00 +15°C° 0 mm 1 m/s 730 mmHg 19%
    06:00 +15°C° 0 mm 1 m/s 730 mmHg 19%
    07:00 +16°C° 0 mm 1 m/s 730 mmHg 19%
    08:00 +16°C° 0 mm 1 m/s 730 mmHg 19%
    09:00 +19°C° 0 mm 1 m/s 730 mmHg 17%
    10:00 +21°C° 0 mm 1 m/s 731 mmHg 14%
    11:00 +23°C° 0 mm 1 m/s 731 mmHg 12%
    12:00 +24°C° 0 mm 1 m/s 730 mmHg 12%
    13:00 +24°C° 0 mm 1 m/s 730 mmHg 11%
    14:00 +25°C° 0 mm 1 m/s 729 mmHg 11%
    15:00 +24°C° 0 mm 1 m/s 729 mmHg 12%
    16:00 +23°C° 0 mm 1 m/s 729 mmHg 14%
    17:00 +22°C° 0 mm 1 m/s 729 mmHg 16%
    18:00 +21°C° 0 mm 1 m/s 730 mmHg 16%
    19:00 +20°C° 0 mm 1 m/s 730 mmHg 17%
    20:00 +19°C° 0 mm 1 m/s 730 mmHg 17%
    21:00 +19°C° 0 mm 1 m/s 731 mmHg 17%
    22:00 +18°C° 0 mm 1 m/s 731 mmHg 17%
    23:00 +18°C° 0 mm 1 m/s 731 mmHg 17%

    29 Novembro, Quarta-feira

    Tempo Temperatura Precipitação Vento Pressão Humidade
    00:00 +18°C° 0 mm 1 m/s 731 mmHg 17%
    01:00 +16°C° 0 mm 2 m/s 731 mmHg 17%
    02:00 +16°C° 0 mm 2 m/s 731 mmHg 17%
    03:00 +16°C° 0 mm 2 m/s 731 mmHg 17%
    04:00 +15°C° 0 mm 2 m/s 731 mmHg 18%
    05:00 +15°C° 0 mm 2 m/s 731 mmHg 18%
    06:00 +15°C° 0 mm 2 m/s 732 mmHg 18%
    07:00 +15°C° 0 mm 2 m/s 732 mmHg 19%
    08:00 +16°C° 0 mm 2 m/s 733 mmHg 19%
    09:00 +18°C° 0 mm 2 m/s 733 mmHg 18%
    10:00 +20°C° 0 mm 2 m/s 733 mmHg 16%
    11:00 +23°C° 0 mm 2 m/s 733 mmHg 14%
    12:00 +24°C° 0 mm 2 m/s 733 mmHg 13%
    13:00 +24°C° 0 mm 2 m/s 732 mmHg 13%
    14:00 +25°C° 0 mm 2 m/s 732 mmHg 12%
    15:00 +24°C° 0 mm 2 m/s 732 mmHg 14%
    16:00 +23°C° 0 mm 1 m/s 732 mmHg 16%
    17:00 +21°C° 0 mm 1 m/s 731 mmHg 18%
    18:00 +21°C° 0 mm 1 m/s 732 mmHg 18%
    19:00 +19°C° 0 mm 2 m/s 732 mmHg 19%
    20:00 +18°C° 0 mm 2 m/s 732 mmHg 20%
    21:00 +18°C° 0 mm 2 m/s 732 mmHg 21%
    22:00 +17°C° 0 mm 2 m/s 732 mmHg 22%
    23:00 +17°C° 0 mm 2 m/s 732 mmHg 23%

    30 Novembro, Quinta-feira

    Tempo Temperatura Precipitação Vento Pressão Humidade
    00:00 +16°C° 0 mm 2 m/s 732 mmHg 23%
    01:00 +16°C° 0 mm 2 m/s 732 mmHg 24%
    02:00 +16°C° 0 mm 2 m/s 732 mmHg 24%
    03:00 +15°C° 0 mm 2 m/s 732 mmHg 25%
    04:00 +15°C° 0 mm 2 m/s 731 mmHg 25%
    05:00 +15°C° 0 mm 2 m/s 731 mmHg 25%
    06:00 +15°C° 0 mm 2 m/s 732 mmHg 25%
    07:00 +15°C° 0 mm 2 m/s 732 mmHg 25%
    08:00 +15°C° 0 mm 2 m/s 732 mmHg 24%
    09:00 +17°C° 0 mm 2 m/s 732 mmHg 21%
    10:00 +19°C° 0 mm 2 m/s 732 mmHg 18%
    11:00 +21°C° 0 mm 2 m/s 733 mmHg 15%
    12:00 +23°C° 0 mm 2 m/s 732 mmHg 14%
    13:00 +24°C° 0 mm 2 m/s 732 mmHg 14%
    14:00 +25°C° 0 mm 2 m/s 731 mmHg 13%
    15:00 +23°C° 0 mm 2 m/s 731 mmHg 15%
    16:00 +22°C° 0 mm 1 m/s 731 mmHg 17%
    17:00 +21°C° 0 mm 1 m/s 731 mmHg 19%
    18:00 +20°C° 0 mm 1 m/s 731 mmHg 19%
    19:00 +19°C° 0 mm 1 m/s 732 mmHg 20%
    20:00 +19°C° 0 mm 1 m/s 732 mmHg 20%
    21:00 +18°C° 0 mm 1 m/s 732 mmHg 20%
    22:00 +18°C° 0 mm 1 m/s 732 mmHg 21%
    23:00 +16°C° 0 mm 1 m/s 732 mmHg 21%
    Mostrar mais